[[{"header":{"parameterUnit":"m.s-1","parameterCategory":1,"la1":30.2991,"la2":30.254,"lo1":-89.0895,"lo2":-89.0444,"dy":0.0017,"dx":0.0017,"nx":28,"ny":28,"refTime":"2024-06-11T03:00:00:Z","depth":0,"parameterNumber":2,"parameterNumberName":"U-component_of_WINDS"},"data":[0,0,0,0,0,0,0,0,0,0,0,0,0,0,0,0,0,0,0,0,0,0,0,0,0,0,0,0,0,0,0,0,0,0,0,0,0,0,0,0,0,0,0,0,0,0,0,0,0,0,0,0,0,0,0,0,0,0,-4.2669,-4.2669,0,-4.266,-4.266,-4.266,-4.2576,-4.2574,-4.2572,-4.257,-4.2561,-4.2563,-4.2564,0,0,0,0,0,0,0,0,0,0,0,0,0,-4.2615,-4.2616,-4.2669,-4.2669,-4.2669,-4.266,-4.266,-4.266,-4.2576,-4.2574,-4.2571,-4.2569,-4.256,-4.2562,-4.2564,0,0,0,0,0,0,0,0,0,0,0,0,0,-4.2625,-4.2617,-4.267,-4.2626,-4.2622,-4.266,-4.266,-4.266,-4.2577,-4.2574,-4.257,-4.2567,-4.256,-4.2562,-4.2565,-4.2644,0,0,-4.2573,-4.2574,0,0,0,0,0,0,0,0,-4.2625,-4.2627,-4.2633,-4.2629,-4.2625,-4.2616,-4.2638,-4.2655,-4.2578,-4.2594,-4.257,-4.2566,-4.2582,-4.2582,-4.2588,-4.2643,-4.2643,-4.2573,-4.2574,-4.2576,-4.2576,0,0,0,0,0,0,0,-4.2624,-4.2627,-4.2666,-4.2633,-4.2628,-4.2608,-4.2606,-4.264,-4.2606,-4.2592,-4.2586,-4.2586,-4.2579,-4.2585,-4.2587,-4.2643,-4.2573,-4.2575,-4.2577,-4.2578,-4.2764,-4.2767,0,0,0,0,0,0,-4.2629,-4.2627,-4.2666,-4.2666,-4.2617,-4.2611,-4.2609,-4.2622,-4.2605,-4.26,-4.2589,-4.2582,-4.2582,-4.2584,-4.2586,-4.2678,-4.2576,-4.2578,-4.2579,-4.276,-4.2764,-4.2768,0,0,0,0,0,0,-4.2629,-4.2634,-4.2666,-4.2645,-4.2647,-4.2615,-4.2631,-4.2624,-4.263,-4.2603,-4.2596,-4.2602,-4.258,-4.2583,-4.263,-4.2676,-4.2579,-4.2581,-4.2756,-4.2761,-4.2766,-4.2862,0,0,0,0,0,0,-4.2627,-4.2634,-4.2663,-4.2646,-4.2649,-4.2711,-4.2634,-4.2626,-4.2634,-4.2626,-4.2613,-4.2608,-4.2578,-4.2627,-4.2633,-4.2678,-4.2584,-4.2752,-4.2759,-4.2765,-4.2855,-4.287,-4.2883,0,0,0,0,0,-4.2626,-4.2691,-4.2665,-4.2671,-4.2685,-4.2714,-4.2715,-4.2679,-4.2638,-4.2668,-4.2651,-4.2608,-4.267,-4.2632,-4.2638,-4.2685,-4.2749,-4.2757,-4.2764,-4.2848,-4.2867,-4.2882,0,0,0,0,0,0,-4.2714,-4.2688,-4.2659,-4.2721,-4.272,-4.2699,-4.2735,-4.27,-4.2711,-4.2702,-4.2658,-4.2655,-4.271,-4.2702,-4.266,-4.2761,-4.2702,-4.2712,-4.2764,-4.2782,-4.2795,-4.2796,-4.2586,0,0,0,0,0,-4.2741,-4.2766,-4.2742,-4.2798,-4.2799,-4.2768,-4.2779,-4.2751,-4.2749,-4.2748,-4.2734,-4.2734,-4.2753,-4.2767,-4.2783,-4.2853,-4.2849,-4.2888,-4.2902,-4.2914,-4.2923,-4.296,-4.2977,-4.2793,-4.2793,-4.2793,0,0,-4.2797,-4.2785,-4.2804,-4.2816,-4.2812,-4.2839,-4.2768,-4.28,-4.282,-4.2753,-4.2797,-4.2787,-4.2784,-4.2843,-4.2868,-4.2838,-4.2973,-4.2924,-4.2933,-4.2935,-4.2969,-4.2987,-4.3002,-4.2798,-4.2797,-4.2796,0,0,-4.2911,-4.2905,-4.2952,-4.295,-4.2945,-4.2924,-4.2935,-4.292,-4.2911,-4.2954,-4.2905,-4.2928,-4.2962,-4.2962,-4.2966,-4.3082,-4.3044,-4.3089,-4.3162,-4.3199,-4.3213,-4.3226,-4.3268,-4.3283,-4.3097,-4.3098,-4.3098,0,-4.2981,-4.302,-4.298,-4.3016,-4.3023,-4.2963,-4.3011,-4.301,-4.3012,-4.3018,-4.2984,-4.3026,-4.302,-4.3078,-4.3107,-4.3112,-4.3124,-4.309,-4.3214,-4.3227,-4.3238,-4.3277,-4.3293,-4.3103,-4.3102,-4.3102,-4.3101,0,-4.3106,-4.3134,-4.3172,-4.3175,-4.3186,-4.3227,-4.3194,-4.321,-4.3182,-4.3164,-4.321,-4.32,-4.3214,-4.3225,-4.3198,-4.3281,-4.3262,-4.3222,-4.3162,-4.3262,-4.3298,-4.3312,-4.3111,-4.3109,-4.3107,-4.3106,0,0,-4.3276,-4.3257,-4.3271,-4.3272,-4.3263,-4.3284,-4.3323,-4.3336,-4.3351,-4.3354,-4.3385,-4.3416,-4.3379,-4.3384,-4.3356,-4.3388,-4.3481,-4.3344,-4.3344,-4.337,-4.3572,-4.3602,-4.362,-4.3456,-4.3458,-4.3461,-4.3573,0,-4.3387,-4.3452,-4.3417,-4.3487,-4.3512,-4.3457,-4.3491,-4.3489,-4.3474,-4.3493,-4.3476,-4.3499,-4.3448,-4.3451,-4.348,-4.3464,-4.3521,-4.3455,-4.3485,-4.3487,-4.3488,-4.3639,-4.3671,-4.3777,-4.3586,-4.3589,-4.359,0,-4.3525,-4.3534,-4.3606,-4.3592,-4.3602,-4.3633,-4.3642,-4.3662,-4.3659,-4.3645,-4.3652,-4.3616,-4.3654,-4.3595,-4.3646,-4.3602,-4.3612,-4.3606,-4.3609,-4.361,-4.3545,-4.3645,-4.381,-4.3826,-4.3612,-4.361,-4.3609,0,-4.3642,-4.3672,-4.3719,-4.3722,-4.3707,-4.373,-4.3725,-4.3719,-4.3729,-4.3738,-4.3744,-4.3757,-4.3765,-4.3776,-4.3745,-4.3705,-4.3801,-4.3739,-4.3791,-4.3792,-4.3814,-4.3813,-4.3983,-4.382,-4.382,-4.382,-4.3819,0,-4.377,-4.3816,-4.3772,-4.3801,-4.3852,-4.3812,-4.3863,-4.3852,-4.3847,-4.3873,-4.3826,-4.3852,-4.381,-4.3831,-4.3808,-4.3854,-4.3858,-4.3848,-4.3841,-4.3852,-4.3854,-4.3858,-4.385,-4.3824,-4.3823,-4.3822,-4.3821,0,-4.391,-4.3882,-4.3929,-4.3912,-4.3909,-4.3947,-4.3931,-4.3958,-4.3939,-4.3973,-4.3979,-4.395,-4.3973,-4.3944,-4.3964,-4.3948,-4.4011,-4.3993,-4.4013,-4.4007,-4.4061,-4.4057,-4.4241,-4.4263,-4.4086,-4.4088,-4.4089,0,-4.3993,-4.4027,-4.4013,-4.4027,-4.4025,-4.4049,-4.4059,-4.4021,-4.4034,-4.4034,-4.4061,-4.408,-4.4093,-4.4132,-4.4114,-4.4129,-4.4111,-4.4175,-4.4113,-4.4123,-4.4112,-4.4111,-4.4114,-4.4187,-4.4189,-4.4191,-4.4192,0,-4.4144,-4.4128,-4.4145,-4.4157,-4.4171,-4.4179,-4.4183,-4.4198,-4.4158,-4.4175,-4.4198,-4.4209,-4.4229,-4.4249,-4.426,-4.4254,-4.4218,-4.4212,-4.4225,-4.4237,-4.4246,-4.4242,-4.4047,-4.4208,-4.4206,-4.4205,-4.4204,-4.4204,-4.4257,-4.4286,-4.4281,-4.4301,-4.43,-4.4306,-4.433,-4.4314,-4.4333,-4.4347,-4.4324,-4.4353,-4.4349,-4.436,-4.4359,-4.4381,-4.4354,-4.4373,-4.4378,-4.4383,-4.4391,-4.4243,-4.4383,-4.4383,-4.4382,-4.4382,-4.4382,0,-4.4406,-4.44,-4.4419,-4.4427,-4.4443,-4.4407,-4.441,-4.4426,-4.4452,-4.4452,-4.4466,-4.4493,-4.4512,-4.4495,-4.4511,-4.4532,-4.4516,-4.4537,-4.4536,-4.4535,-4.4415,-4.4402,-4.4551,-4.4551,-4.4551,-4.4551,-4.455,-4.455,-4.4485,-4.4531,-4.4515,-4.4561,-4.4554,-4.4582,-4.4587,-4.4592,-4.4592,-4.4624,-4.464,-4.4628,-4.4622,-4.4637,-4.4653,-4.4647,-4.4655,-4.4684,-4.4672,-4.456,-4.4543,-4.4528,-4.4516,-4.4686,-4.4686,-4.4791,-4.4792,-4.4792]},{"header":{"parameterUnit":"m.s-1","parameterCategory":1,"la1":30.2991,"la2":30.254,"lo1":-89.0895,"lo2":-89.0444,"dy":0.0017,"dx":0.0017,"nx":28,"ny":28,"refTime":"2024-06-11T03:00:00:Z","depth":0,"parameterNumber":3,"parameterNumberName":"V-component_of_WINDS"},"data":[0,0,0,0,0,0,0,0,0,0,0,0,0,0,0,0,0,0,0,0,0,0,0,0,0,0,0,0,0,0,0,0,0,0,0,0,0,0,0,0,0,0,0,0,0,0,0,0,0,0,0,0,0,0,0,0,0,0,-1.0843,-1.0844,0,-1.0887,-1.0888,-1.0888,-1.0889,-1.0889,-1.0888,-1.0888,-1.0931,-1.0933,-1.0935,0,0,0,0,0,0,0,0,0,0,0,0,0,-1.0757,-1.0759,-1.0843,-1.0844,-1.0844,-1.0887,-1.0888,-1.0889,-1.089,-1.0889,-1.0888,-1.0888,-1.0931,-1.0933,-1.0935,0,0,0,0,0,0,0,0,0,0,0,0,0,-1.0797,-1.0759,-1.0843,-1.085,-1.0851,-1.0887,-1.0888,-1.0889,-1.089,-1.0889,-1.0888,-1.0887,-1.093,-1.0933,-1.0935,-1.0967,0,0,-1.0943,-1.0944,0,0,0,0,0,0,0,0,-1.0795,-1.08,-1.0849,-1.085,-1.0851,-1.0882,-1.0873,-1.0915,-1.089,-1.0875,-1.0888,-1.0887,-1.0916,-1.0919,-1.0929,-1.0969,-1.0971,-1.0943,-1.0944,-1.0945,-1.0946,0,0,0,0,0,0,0,-1.0792,-1.0798,-1.0861,-1.0849,-1.0851,-1.085,-1.0855,-1.0881,-1.0899,-1.0876,-1.0876,-1.0882,-1.0916,-1.0927,-1.093,-1.0971,-1.0943,-1.0945,-1.0947,-1.0948,-1.1038,-1.1038,0,0,0,0,0,0,-1.0788,-1.0796,-1.0859,-1.0862,-1.082,-1.0852,-1.0858,-1.0873,-1.0899,-1.0902,-1.0882,-1.0882,-1.0923,-1.0927,-1.0932,-1.097,-1.0945,-1.0948,-1.0949,-1.1037,-1.1038,-1.1039,0,0,0,0,0,0,-1.0786,-1.0794,-1.0857,-1.0829,-1.0837,-1.0855,-1.0872,-1.0874,-1.0885,-1.0904,-1.0907,-1.089,-1.0922,-1.0928,-1.0958,-1.0972,-1.0949,-1.0951,-1.1036,-1.1037,-1.1038,-1.1048,0,0,0,0,0,0,-1.0784,-1.0793,-1.0806,-1.0829,-1.0839,-1.0884,-1.0873,-1.0876,-1.089,-1.0889,-1.0912,-1.0915,-1.0922,-1.0954,-1.096,-1.0975,-1.0953,-1.1034,-1.1036,-1.1038,-1.1046,-1.1049,-1.1052,0,0,0,0,0,-1.0781,-1.0807,-1.0807,-1.0815,-1.0855,-1.0885,-1.089,-1.0898,-1.0891,-1.0903,-1.0915,-1.0914,-1.0969,-1.0957,-1.0964,-1.098,-1.1034,-1.1036,-1.1038,-1.1045,-1.1049,-1.1052,0,0,0,0,0,0,-1.0785,-1.081,-1.081,-1.0845,-1.0863,-1.0885,-1.0901,-1.0902,-1.0922,-1.0921,-1.0929,-1.0935,-1.0964,-1.0974,-1.0961,-1.1011,-1.1,-1.1004,-1.1003,-1.1007,-1.101,-1.1007,-1.0955,0,0,0,0,0,-1.0789,-1.0812,-1.0832,-1.0861,-1.087,-1.0884,-1.0897,-1.0902,-1.092,-1.0928,-1.0942,-1.0959,-1.098,-1.0994,-1.1014,-1.1047,-1.1052,-1.1061,-1.1064,-1.1066,-1.1069,-1.1087,-1.1091,-1.1045,-1.1045,-1.1045,0,0,-1.08,-1.0816,-1.083,-1.0862,-1.0876,-1.0899,-1.089,-1.0914,-1.0931,-1.0931,-1.096,-1.0971,-1.0991,-1.1022,-1.1036,-1.1032,-1.1082,-1.1068,-1.107,-1.1072,-1.1089,-1.1093,-1.1097,-1.1047,-1.1047,-1.1046,0,0,-1.083,-1.0845,-1.087,-1.0885,-1.0906,-1.0915,-1.0921,-1.0943,-1.095,-1.0979,-1.098,-1.0999,-1.1035,-1.1049,-1.1061,-1.1095,-1.1095,-1.1101,-1.1116,-1.1133,-1.1136,-1.114,-1.1152,-1.1156,-1.1104,-1.1104,-1.1104,0,-1.084,-1.0875,-1.0883,-1.0907,-1.0921,-1.0922,-1.0947,-1.096,-1.0987,-1.0996,-1.099,-1.1035,-1.1049,-1.1083,-1.1091,-1.1101,-1.1107,-1.1099,-1.1135,-1.1139,-1.1142,-1.1153,-1.1158,-1.1105,-1.1104,-1.1104,-1.1104,0,-1.0886,-1.0909,-1.0927,-1.0953,-1.0969,-1.0993,-1.1004,-1.1018,-1.1021,-1.1031,-1.106,-1.1075,-1.1099,-1.1107,-1.111,-1.1142,-1.1138,-1.1133,-1.1123,-1.1147,-1.1158,-1.1162,-1.1106,-1.1105,-1.1105,-1.1105,0,0,-1.0921,-1.0951,-1.0958,-1.0969,-1.0993,-1.1011,-1.1034,-1.1058,-1.107,-1.1087,-1.1107,-1.1137,-1.1133,-1.1146,-1.1151,-1.1165,-1.1191,-1.1159,-1.116,-1.1165,-1.1226,-1.123,-1.1235,-1.119,-1.1191,-1.1192,-1.1225,0,-1.0955,-1.0998,-1.1006,-1.1043,-1.1064,-1.1065,-1.1086,-1.1101,-1.111,-1.1129,-1.1138,-1.1159,-1.1152,-1.116,-1.1174,-1.1185,-1.1203,-1.1182,-1.1209,-1.1209,-1.1205,-1.1241,-1.1245,-1.1276,-1.1229,-1.123,-1.123,0,-1.1,-1.102,-1.1059,-1.1079,-1.1088,-1.1107,-1.1128,-1.1146,-1.1163,-1.1169,-1.1183,-1.1185,-1.1209,-1.1196,-1.1228,-1.1214,-1.1224,-1.1231,-1.1232,-1.1236,-1.1222,-1.1246,-1.1286,-1.129,-1.1237,-1.1237,-1.1236,0,-1.1023,-1.1059,-1.1087,-1.1097,-1.112,-1.1133,-1.1143,-1.116,-1.1173,-1.1191,-1.12,-1.122,-1.1231,-1.1247,-1.1254,-1.1244,-1.1285,-1.1274,-1.129,-1.129,-1.13,-1.1299,-1.1342,-1.1305,-1.1305,-1.1305,-1.1305,0,-1.106,-1.1084,-1.1098,-1.1115,-1.1142,-1.1149,-1.1175,-1.1185,-1.1199,-1.1218,-1.1219,-1.1236,-1.1245,-1.1263,-1.1268,-1.1294,-1.1299,-1.1303,-1.1305,-1.1304,-1.1303,-1.1312,-1.131,-1.1306,-1.1306,-1.1306,-1.1306,0,-1.109,-1.11,-1.1131,-1.1151,-1.1156,-1.1175,-1.1191,-1.1207,-1.1215,-1.1239,-1.1245,-1.1257,-1.1278,-1.1287,-1.1313,-1.1316,-1.1346,-1.1345,-1.134,-1.1341,-1.1357,-1.1356,-1.1408,-1.1415,-1.1372,-1.1373,-1.1373,0,-1.1114,-1.1133,-1.1154,-1.1167,-1.1178,-1.1198,-1.1212,-1.1219,-1.1232,-1.1253,-1.1266,-1.1288,-1.1306,-1.1339,-1.135,-1.137,-1.137,-1.1387,-1.1373,-1.1371,-1.137,-1.137,-1.1371,-1.139,-1.139,-1.139,-1.1391,0,-1.1155,-1.1158,-1.1178,-1.1199,-1.1215,-1.1232,-1.1248,-1.1258,-1.1268,-1.1283,-1.1305,-1.1318,-1.1345,-1.1366,-1.1385,-1.1395,-1.1394,-1.1395,-1.14,-1.1399,-1.1396,-1.1398,-1.1348,-1.1394,-1.1393,-1.1393,-1.1393,-1.1393,-1.1183,-1.1199,-1.1217,-1.1238,-1.1251,-1.1266,-1.1282,-1.1292,-1.1311,-1.1333,-1.1336,-1.1359,-1.1375,-1.1401,-1.1411,-1.1429,-1.1425,-1.1432,-1.1434,-1.1436,-1.1437,-1.1392,-1.1433,-1.1433,-1.1433,-1.1433,-1.1433,0,-1.1224,-1.1235,-1.1255,-1.1278,-1.1294,-1.1292,-1.1309,-1.1323,-1.1344,-1.1359,-1.1376,-1.1401,-1.1421,-1.1432,-1.1452,-1.1464,-1.1464,-1.1469,-1.1469,-1.1471,-1.144,-1.1434,-1.1469,-1.1469,-1.1469,-1.1469,-1.1469,-1.1469,-1.1248,-1.1276,-1.1281,-1.1315,-1.1325,-1.1349,-1.1359,-1.1372,-1.1384,-1.1412,-1.1428,-1.1436,-1.1449,-1.147,-1.1487,-1.149,-1.1498,-1.1503,-1.1505,-1.1477,-1.1473,-1.147,-1.1464,-1.1504,-1.1504,-1.1535,-1.1535,-1.1536]}]]